Powrót do katalogu

METEOR 2-5 DEB

AktywnyPO
NORAD 38274·DEBRIS·🇷🇺 Russia

Wystrzelony Oct 31, 1979 z Plesetsk Cosmodrome

Loading…

Następne Przeloty (najbliższe 24 godziny)

TLE

Starzejące sięSource: Space-Track

Epoka: Sep 7, 2026, 16:09 UTC

1 38274U 79095BU  26250.67340291  .00005329  00000-0  13898-2 0  9991
2 38274  81.1881  20.8531 0015564  82.5767 277.7193 14.49342643624444

Śledź METEOR 2-5 DEB w czasie rzeczywistym z AllMySat

Download on the App Store